CAPE
0 0 0 0 0 0 0 0 0 0 0 0 0 0 0 0 1 0 1 0 1 7 4 0 0 0 0 0 0 9 8 16 14 1 0 0 0 0 0 0 0 0 0
0 0 0 0 0 0 0 0 0 0 0 0 0 0 0 0 0 6 5 0 2 8 9 1 0 2 0 0 0 0 1 0 19 9 0 7 0 0 0 0 0 0 0
0 0 0 0 0 0 0 0 0 0 0 0 0 0 0 0 0 2 3 0 0 0 6 12 0 0 0 0 0 0 3 7 2 11 7 3 0 0 0 0 0 0 0
0 0 0 0 0 0 0 0 0 0 0 0 0 0 0 0 0 1 2 2 1 1 2 6 7 2 0 0 0 0 0 0 0 2 5 0 0 0 0 0 0 0 0
0 0 0 0 0 0 0 0 0 0 0 0 0 0 0 0 2 2 4 6 6 3 1 1 9 14 23 13 5 1 2 9 7 5 11 8 0 0 0 0 0 0 0
0 0 0 0 0 0 0 0 0 0 0 0 0 0 0 2 10 22 26 16 22 25 17 0 0 12 24 32 24 21 13 12 15 9 7 3 1 0 0 0 0 1 0
0 0 0 0 0 0 0 0 0 0 0 0 0 0 0 0 15 16 28 26 22 24 28 31 30 19 17 21 27 16 14 21 32 2 4 5 2 2 0 0 0 0 0
0 0 0 0 0 0 0 0 0 0 0 0 0 0 1 4 19 21 34 24 13 7 3 1 11 13 12 28 25 15 7 8 4 3 6 0 0 0 6 0 0 0 0
0 0 0 0 0 0 0 0 0 0 0 0 3 0 2 1 13 20 32 17 12 1 1 9 5 3 5 21 17 19 7 7 11 14 28 23 16 13 12 0 0 0 0
0 0 0 0 0 0 0 0 0 0 4 6 8 1 5 1 6 22 26 13 1 1 2 3 12 21 43 28 17 27 12 6 8 4 0 4 13 1 1 0 0 0 0
0 0 0 0 0 0 0 0 0 0 4 0 1 1 0 0 1 17 19 11 13 17 13 17 11 26 34 32 45 21 9 5 8 3 1 0 0 0 2 5 0 0 0
0 0 0 0 0 1 0 0 0 0 0 0 0 1 2 0 3 7 12 21 39 24 16 7 2 14 37 37 37 39 74 33 1 0 1 0 0 0 0 0 0 0 0
0 0 0 0 1 0 1 0 1 1 0 0 2 2 2 1 0 8 13 18 26 17 9 5 16 27 24 46 56 53 43 23 2 6 2 0 0 0 0 0 0 0 0
0 0 0 0 1 0 6 7 2 0 0 6 1 0 1 3 1 2 3 1 3 4 4 1 6 4 14 44 43 17 15 10 13 2 0 0 0 0 0 0 0 0 0
0 0 0 1 0 0 3 3 1 1 3 5 4 4 3 0 1 10 25 12 7 12 14 1 1 0 2 0 2 6 0 1 16 2 0 0 0 0 0 0 0 0 0
0 1 0 0 0 0 0 0 1 8 19 21 21 16 8 19 25 24 29 36 42 71 8 0 8 0 0 0 1 0 0 9 0 0 0 0 0 0 0 0 0 0 0
0 0 1 4 0 0 0 0 0 0 1 2 8 20 20 22 23 35 47 48 32 33 5 0 0 0 1 0 0 0 1 0 0 0 0 0 0 0 0 0 0 0 0
0 7 3 0 0 0 0 0 0 0 0 0 0 2 6 14 25 41 26 18 0 1 0 0 0 0 0 0 0 4 0 0 0 0 0 0 0 0 0 0 0 0 0
1 2 1 1 1 2 0 0 0 0 0 0 0 0 0 21 12 14 17 2 2 0 0 0 0 0 0 0 0 0 0 0 0 0 0 0 0 0 0 0 0 1 0
0 1 6 1 0 0 0 0 0 0 0 0 0 0 0 2 1 1 2 1 0 0 0 0 0 0 0 0 0 0 0 0 0 0 0 0 0 0 0 0 0 0 0
0 0 7 0 0 0 0 0 0 0 0 0 0 2 36 3 1 1 1 1 0 0 0 0 0 0 0 0 0 0 0 0 0 0 0 0 0 0 0 0 0 0 0
0 0 0 0 0 0 0 0 0 0 0 0 0 2 15 0 1 1 1 0 0 0 0 0 0 0 0 0 0 0 0 0 0 0 0 0 0 0 0 0 0 0 0
0 0 0 0 0 1 0 0 0 0 0 0 0 1 1 1 0 0 0 0 0 0 0 0 0 0 0 0 0 0 0 0 0 0 0 0 0 0 0 0 0 0 0
0 0 0 0 0 0 0 0 0 1 1 0 0 0 0 0 0 0 0 0 0 0 0 0 0 0 0 0 0 0 0 0 0 0 0 0 0 1 0 0 0 0 0
0 0 0 0 0 0 0 0 0 0 0 0 0 0 0 0 0 0 0 0 0 0 0 0 0 0 0 0 0 0 0 3 0 0 0 0 0 0 0 0 0 0 0
0 0 0 0 0 0 0 0 0 0 0 0 0 0 0 0 0 0 0 0 0 0 0 0 0 0 0 0 0 4 10 7 1 3 0 0 0 0 0 0 0 0 0
CIN
-0 -0 -0 -0 -0 -0 -0 -0 -0 -0 -0 -0 -0 -0 -0 -0 -1 -0 -2 -2 -0 -0 -2 -0 -0 -0 -0 -0 -0 -1 -0 -2 -0 -0 -0 -0 -0 -0 -0 -0 -0 -0 -0
-0 -0 -0 -0 -0 -0 -0 -0 -0 -0 -0 -0 -0 -0 -0 -0 -0 -0 -0 -0 -0 -0 -0 -3 -1 -0 -0 -0 -0 -0 -1 -0 -0 -0 -1 -2 -0 -0 -0 -0 -0 -0 -0
-0 -0 -0 -0 -0 -0 -0 -0 -0 -0 -0 -0 -0 -0 -0 -0 -0 -0 -0 -0 -0 -0 -0 -0 -1 -0 -0 -0 -0 -0 -1 -1 -3 -0 -0 -1 -0 -0 -0 -0 -0 -0 -0
-0 -0 -0 -0 -0 -0 -0 -0 -0 -0 -0 -0 -0 -0 -0 -0 -0 -0 -0 -0 -1 -3 -2 -1 -2 -1 -0 -0 -0 -0 -0 -1 -0 -1 -0 -0 -0 -0 -0 -0 -0 -0 -0
-0 -0 -0 -0 -0 -0 -0 -0 -0 -0 -0 -0 -0 -0 -0 -0 -0 -0 -0 -0 -0 -3 -9 -5 -0 -0 -0 -2 -0 -3 -2 -1 -3 -2 -0 -0 -0 -0 -0 -0 -0 -0 -0
-0 -0 -0 -0 -0 -0 -0 -0 -0 -0 -0 -0 -0 -0 -0 -0 -0 -0 -0 -0 -0 -0 -0 -5 -0 -0 -0 -0 -0 -0 -0 -0 -1 -2 -0 -0 -0 -0 -0 -0 -0 -0 -0
-0 -0 -0 -0 -0 -0 -0 -0 -0 -0 -0 -0 -0 -0 -1 -0 -0 -0 -0 -0 -0 -0 -0 -0 -0 -0 -0 -0 -0 -0 -0 -0 -0 -0 -4 -0 -0 -0 -0 -0 -0 -0 -0
-0 -0 -0 -0 -0 -0 -0 -0 -0 -0 -0 -0 -1 -1 -0 -0 -0 -0 -0 -0 -0 -0 -0 -0 -0 -0 -0 -0 -0 -1 -3 -5 -6 -0 -1 -1 -0 -0 -0 -0 -0 -0 -0
-0 -0 -0 -0 -0 -0 -0 -0 -0 -0 -0 -0 -0 -1 -1 -1 -0 -0 -0 -0 -0 -0 -0 -0 -0 -0 -2 -0 -0 -0 -4 -4 -4 -1 -0 -0 -0 -0 -1 -0 -0 -0 -0
-0 -0 -0 -0 -0 -0 -0 -0 -0 -0 -0 -0 -0 -0 -0 -0 -0 -0 -0 -0 -0 -0 -0 -0 -0 -0 -0 -0 -0 -0 -0 -9 -8 -6 -1 -2 -1 -3 -0 -0 -0 -0 -0
-0 -0 -0 -0 -0 -0 -0 -0 -0 -0 -0 -0 -0 -0 -0 -0 -0 -0 -0 -0 -0 -0 -0 -0 -0 -0 -0 -0 -0 -0 -3 -14 -17 -18 -23 -0 -0 -0 -4 -2 -0 -0 -0
-0 -0 -0 -0 -0 -0 -0 -0 -0 -0 -0 -1 -1 -0 -0 -0 -0 -0 -0 -0 -0 -0 -0 -0 -0 -0 -0 -0 -0 -0 -0 -0 -16 -13 -9 -5 -0 -0 -0 -0 -0 -0 -0
-0 -0 -0 -0 -0 -0 -1 -0 -0 -1 -0 -0 -0 -0 -0 -0 -1 -0 -0 -0 -0 -0 -0 -0 -0 -0 -2 -0 -0 -0 -0 -1 -4 -0 -3 -4 -0 -0 -0 -0 -0 -0 -0
-0 -0 -0 -0 -0 -0 -0 -0 -1 -1 -1 -0 -0 -0 -1 -0 -0 -0 -0 -0 -0 -0 -0 -0 -0 -0 -0 -0 -0 -0 -0 -2 -0 -5 -0 -0 -0 -0 -0 -0 -0 -0 -0
-0 -0 -0 -0 -1 -1 -0 -0 -0 -0 -0 -1 -1 -0 -0 -0 -0 -0 -0 -0 -0 -0 -0 -0 -0 -0 -0 -2 -0 -1 -0 -14 -0 -9 -0 -0 -0 -0 -0 -0 -0 -0 -0
-0 -0 -0 -0 -1 -1 -0 -0 -0 -0 -0 -0 -0 -0 -0 -0 -0 -0 -0 -0 -0 -0 -0 -0 -0 -0 -0 -1 -0 -3 -0 -0 -21 -0 -0 -0 -0 -0 -0 -0 -0 -0 -0
-0 -0 -0 -0 -1 -1 -0 -0 -1 -0 -0 -0 -0 -0 -0 -0 -0 -0 -0 -0 -0 -0 -0 -0 -0 -0 -5 -0 -0 -0 -0 -0 -1 -0 -0 -0 -0 -0 -0 -0 -0 -0 -0
-0 -0 -0 -0 -2 -0 -0 -1 -0 -0 -0 -0 -0 -0 -0 -0 -0 -0 -0 -0 -0 -0 -0 -0 -0 -0 -0 -0 -0 -0 -1 -0 -0 -0 -0 -0 -0 -0 -0 -0 -0 -0 -0
-0 -0 -0 -1 -1 -0 -0 -0 -0 -0 -0 -0 -0 -0 -0 -0 -0 -0 -0 -0 -0 -0 -0 -0 -0 -0 -0 -0 -0 -0 -0 -0 -0 -0 -0 -0 -0 -0 -0 -0 -0 -0 -0
-0 -0 -0 -0 -0 -0 -0 -0 -0 -0 -0 -0 -0 -0 -1 -1 -0 -0 -0 -0 -0 -0 -0 -0 -0 -0 -0 -0 -0 -0 -0 -0 -0 -0 -0 -0 -0 -0 -0 -0 -0 -0 -0
-0 -0 -0 -0 -0 -0 -0 -1 -0 -0 -0 -0 -0 -0 -0 -0 -0 -0 -0 -0 -0 -0 -0 -0 -0 -0 -0 -0 -0 -0 -0 -0 -0 -0 -0 -0 -0 -0 -0 -0 -0 -0 -0
-0 -0 -0 -0 -0 -0 -0 -0 -0 -0 -0 -0 -0 -0 -0 -0 -0 -0 -0 -0 -0 -0 -0 -0 -0 -0 -0 -0 -0 -0 -0 -0 -0 -0 -0 -0 -0 -0 -0 -0 -0 -0 -0
-0 -0 -0 -0 -0 -0 -0 -0 -0 -0 -0 -0 -1 -0 -0 -0 -0 -0 -0 -0 -0 -0 -0 -0 -0 -0 -0 -0 -0 -0 -0 -0 -0 -0 -0 -0 -0 -0 -0 -0 -0 -0 -0
-0 -0 -0 -0 -0 -0 -0 -0 -0 -0 -0 -1 -0 -0 -0 -0 -0 -0 -0 -0 -0 -0 -0 -0 -0 -0 -0 -0 -0 -0 -0 -0 -0 -0 -0 -0 -0 -0 -0 -0 -0 -0 -0
-0 -0 -0 -0 -0 -0 -0 -0 -0 -0 -0 -0 -0 -0 -0 -0 -0 -0 -0 -0 -0 -0 -0 -0 -0 -0 -0 -0 -0 -0 -0 -0 -0 -0 -0 -0 -0 -0 -0 -0 -0 -0 -0
-0 -0 -0 -0 -0 -0 -0 -0 -0 -0 -0 -0 -0 -0 -0 -0 -0 -0 -0 -0 -0 -0 -0 -0 -0 -0 -0 -0 -0 -0 -0 -0 -0 -0 -0 -0 -0 -0 -0 -0 -0 -0 -0
Wind_Speed
6 6 7 8 9 9 9 10 10 11 12 12 12 13 13 12 11 11 9 9 11 10 6 8 9 7 6 5 5 5 6 4 7 7 5 2 1 1 3 3 4 4 2
7 7 8 9 9 9 9 11 11 11 11 12 13 13 13 12 12 12 11 9 11 11 10 9 9 7 7 6 5 7 6 5 5 9 6 3 3 1 1 2 3 3 4
8 8 9 9 9 10 10 11 12 12 12 13 13 13 13 13 13 12 12 11 11 12 11 10 9 9 8 6 6 6 6 5 3 4 5 2 2 2 2 2 3 4 4
9 9 10 10 10 11 11 11 11 12 13 13 13 13 13 14 13 13 13 13 12 11 11 11 10 10 10 8 7 6 7 6 4 5 6 5 2 2 2 1 2 4 3
9 10 11 11 11 11 12 12 12 12 13 13 13 13 13 13 10 12 13 12 12 12 11 11 11 13 19 15 7 6 5 7 5 5 5 2 3 2 3 3 3 2 3
9 10 11 12 12 13 13 14 13 14 13 13 13 13 14 11 21 24 20 12 12 12 11 10 10 16 16 20 20 20 14 8 8 5 5 3 3 1 2 3 3 3 3
10 11 12 12 14 14 14 14 14 14 13 14 14 13 14 14 24 24 23 12 11 11 10 9 8 8 14 11 15 19 19 21 19 8 8 6 3 1 1 3 3 3 3
10 11 12 13 15 15 15 15 14 13 14 14 14 15 15 13 25 25 23 13 11 12 13 12 10 10 11 11 11 10 10 9 9 7 7 7 5 3 3 2 2 5 6
11 13 13 14 16 16 16 16 15 14 14 14 14 15 14 15 25 25 21 10 10 11 11 11 11 11 15 20 13 11 10 9 10 15 13 11 10 11 7 4 4 6 3
12 14 15 15 15 16 16 16 13 14 16 13 15 15 19 17 23 25 19 8 10 9 11 11 19 16 20 22 13 9 10 9 8 8 7 11 11 6 8 9 7 7 4
13 14 15 15 15 15 15 14 14 15 15 15 16 14 15 16 15 23 22 10 8 8 8 7 7 17 19 20 20 11 11 9 13 8 7 5 4 4 5 7 7 8 4
13 15 15 15 13 13 16 15 15 15 14 13 14 13 11 12 19 20 22 20 17 11 10 8 12 20 20 21 18 18 19 19 7 6 6 6 5 5 4 6 7 4 2
13 15 15 15 14 14 15 16 13 13 12 12 11 11 11 10 9 20 23 22 20 12 8 14 21 21 22 18 22 21 18 8 8 7 7 6 5 4 5 5 6 9 9
14 15 14 14 17 14 12 11 11 11 11 11 12 11 10 11 10 9 8 9 16 14 16 14 16 19 20 13 12 13 8 7 7 8 6 3 3 5 4 4 5 7 6
14 13 13 13 13 14 12 12 12 13 13 13 12 11 12 11 11 19 18 11 10 12 12 7 8 8 7 7 6 7 7 6 6 6 5 5 5 5 4 4 6 6 5
13 12 12 12 12 12 12 13 20 23 27 27 26 19 11 22 26 26 26 25 25 24 7 6 6 8 8 7 8 7 7 9 7 5 7 7 7 7 6 5 5 5 9
13 13 12 13 12 12 12 13 15 18 25 24 24 25 24 23 23 22 21 17 17 15 7 7 4 5 5 6 7 7 8 9 8 8 8 8 8 7 11 7 7 8 8
13 22 11 11 11 11 11 12 12 13 15 15 22 24 23 23 23 21 19 14 6 5 3 3 5 5 5 6 6 7 7 9 9 9 9 9 9 9 8 8 7 9 10
12 11 12 10 11 14 11 11 11 12 12 13 13 17 20 21 19 17 16 5 5 4 3 3 3 3 4 4 5 5 7 8 10 10 9 9 9 9 8 8 8 14 15
12 21 18 11 11 11 11 11 11 11 12 12 11 12 11 12 9 9 7 6 5 4 3 3 2 2 3 4 3 3 5 8 9 9 10 10 9 9 10 11 10 11 9
9 10 21 10 10 10 11 11 11 11 12 12 11 11 26 10 9 8 8 7 6 5 4 3 2 1 2 3 3 4 6 6 8 9 9 9 10 10 10 10 10 10 11
8 9 10 11 11 11 11 11 11 12 12 12 11 11 23 8 8 8 8 7 7 6 5 4 3 3 3 3 5 6 7 8 8 9 10 10 10 10 11 11 12 11 12
8 10 11 10 10 16 12 11 11 11 12 11 10 10 10 9 9 9 8 8 7 7 6 5 4 4 4 5 5 5 7 7 8 9 11 11 11 11 11 12 13 13 12
8 9 10 10 10 11 11 12 12 17 14 11 10 10 9 9 9 10 9 8 8 7 7 6 6 6 6 6 6 6 7 8 8 10 14 12 12 15 12 12 12 15 13
7 9 10 10 11 11 12 12 13 13 12 11 10 10 9 9 9 9 9 8 8 8 9 8 7 9 11 12 11 12 16 20 12 13 10 13 15 16 13 12 14 12 14
7 8 8 9 10 10 11 11 12 12 12 11 10 10 9 9 9 9 9 9 9 9 10 8 12 14 12 10 13 18 23 22 17 21 12 12 13 12 12 14 17 12 13
Wind_Direction
330 315 308 307 304 300 302 300 299 299 298 299 302 304 304 299 293 285 274 283 290 290 280 278 274 274 278 280 276 265 250 244 275 289 297 245 282 41 21 39 19 33 22
311 306 302 299 299 299 297 297 300 299 296 299 301 301 301 300 296 291 290 284 279 284 282 262 265 274 275 278 281 278 271 246 258 276 295 288 229 60 51 60 54 34 31
308 304 302 296 295 296 297 299 301 298 298 298 298 297 298 297 295 291 287 281 274 273 276 274 270 266 264 259 255 266 268 259 250 278 293 341 311 106 66 314 45 53 27
309 304 297 298 300 297 297 297 294 296 296 296 294 294 293 292 290 289 284 276 271 268 267 268 263 259 257 255 250 250 262 253 234 251 258 254 234 240 137 140 63 46 20
301 302 301 303 300 298 301 300 299 298 295 294 294 292 291 289 286 284 277 274 260 255 254 258 258 258 263 251 247 237 244 255 236 252 256 285 189 206 162 174 96 94 52
303 303 306 307 307 307 305 303 302 301 298 298 295 292 290 287 290 292 289 280 274 266 259 250 251 265 270 267 257 255 252 254 247 237 256 241 290 244 133 145 128 152 129
307 308 311 311 310 307 305 304 303 302 301 298 294 292 290 287 292 290 286 277 271 269 267 261 252 250 257 259 260 256 252 252 247 229 240 239 245 246 208 156 164 146 120
313 311 313 312 309 306 305 305 304 303 300 296 296 293 288 286 293 294 293 286 274 271 271 266 255 253 253 244 245 248 246 246 248 253 239 242 233 212 228 217 168 96 79
318 315 312 310 305 306 306 306 304 300 299 296 293 293 290 289 291 291 292 287 276 272 265 257 247 246 245 250 251 240 239 241 245 247 250 242 230 224 201 128 141 141 102
317 312 309 305 305 305 305 302 300 299 296 297 296 293 291 292 291 292 291 271 263 260 256 254 257 248 243 242 241 233 222 225 224 231 237 245 245 238 245 206 172 166 123
310 306 306 306 306 302 303 301 301 297 295 295 293 291 290 286 284 289 291 282 272 274 270 266 257 254 253 253 246 222 224 214 226 219 221 222 202 193 193 212 194 175 153
309 306 306 307 308 307 303 301 299 300 294 295 297 291 286 283 285 289 291 286 277 266 258 256 261 263 257 257 249 245 226 220 205 214 214 217 202 198 190 198 189 155 102
310 305 308 310 311 306 308 306 303 303 298 297 295 293 295 292 284 290 295 292 286 278 265 263 263 258 258 258 247 237 234 221 197 205 210 210 191 183 131 100 98 99 72
307 309 313 314 317 316 310 308 304 302 302 300 295 292 296 298 292 290 277 275 275 273 268 264 255 253 253 242 232 236 223 206 204 196 205 164 128 141 147 147 141 131 105
311 314 318 315 317 318 313 311 307 300 299 305 304 298 297 292 288 291 292 287 280 271 259 268 234 241 235 226 223 208 199 197 200 180 153 150 150 147 143 149 144 142 122
312 322 319 322 325 318 316 313 310 312 313 312 309 305 297 293 296 295 292 287 281 281 261 254 252 224 223 211 210 206 198 198 197 171 159 157 155 153 147 145 144 138 136
314 322 321 330 319 319 320 316 319 319 317 317 318 318 315 309 311 308 305 308 301 291 258 241 224 236 230 211 210 208 204 194 179 169 161 158 153 153 150 147 139 128 125
318 329 328 320 319 320 316 317 312 314 318 321 325 326 323 322 321 323 329 326 307 289 260 234 236 225 213 208 209 213 195 179 172 165 157 154 154 149 145 144 142 139 134
328 332 328 324 322 321 317 312 310 309 315 310 315 322 327 330 342 339 339 318 311 303 290 267 244 219 202 195 194 199 195 172 165 160 155 152 149 147 142 138 135 140 136
336 337 337 328 320 319 317 314 316 319 317 316 319 319 323 346 340 339 338 333 327 322 315 296 270 220 173 165 160 160 159 163 156 152 149 145 145 145 141 138 138 136 133
337 332 332 322 321 319 314 324 320 317 318 317 320 326 347 349 337 336 337 341 339 340 338 338 343 21 124 138 141 128 131 131 135 136 137 136 136 135 136 131 130 125 123
341 332 326 323 321 320 330 325 320 324 319 326 329 337 349 349 344 343 344 346 346 351 350 354 7 25 49 96 117 120 120 124 128 129 128 130 130 128 127 125 126 127 127
343 333 327 325 326 329 331 327 333 327 332 334 340 341 346 350 352 352 353 355 354 0 4 5 15 39 51 68 81 109 122 127 131 131 127 126 127 127 129 129 131 129 129
343 333 328 326 327 339 334 336 333 339 341 344 345 349 350 352 355 356 359 2 360 9 19 21 29 44 61 69 77 84 94 102 110 119 122 123 124 125 123 122 125 127 127
341 333 331 329 332 333 334 337 338 342 345 349 347 351 353 354 358 1 3 2 9 15 34 36 38 51 64 79 88 97 107 106 107 112 112 114 117 119 122 121 125 123 123
338 334 332 329 337 335 339 338 339 342 347 350 349 353 352 356 359 1 2 8 12 19 27 38 42 46 57 70 88 102 105 105 106 110 112 115 116 116 118 118 119 117 120